Regional Weather Roundup
Issued by NWS

Home | Current Version | Previous Version | Graphics & Text | Print | Product List | Glossary On
Versions: 1 2 3 4 5 6 7 8 9 10 11 12 13 14 15 16 17 18 19 20 21 22 23 24 25 26 27 28 29 30 31 32 33 34 35 36 37 38 39 40 41 42 43 44 45 46 47 48 49 50
000
ASUS43 KTOP 270259
RWRKS

WEATHER ROUNDUP FOR KANSAS
NATIONAL WEATHER SERVICE GOODLAND KS
1000 PM CDT TUE AUG 26 2014

NOTE:  "FAIR" INDICATES FEW OR NO CLOUDS BELOW 12,000 FEET WITH NO
SIGNIFICANT WEATHER AND/OR OBSTRUCTIONS TO VISIBILITY.

KSZ001>006-013>018-027>032-041>047-270400-
NORTHWEST KANSAS

CITY           SKY/WX    TMP DP  RH WIND       PRES   REMARKS
GOODLAND       TSTM      67  64  90 SW16      30.18R
HAYS           PTCLDY    75  64  69 SE7       30.09R
HILL CITY      MOCLDY    76  65  68 E6        30.09R
RUSSELL        PTCLDY    77  68  73 SE8       30.07R
$$

KSZ061>065-074>080-084>089-270400-
SOUTHWEST KANSAS

CITY           SKY/WX    TMP DP  RH WIND       PRES   REMARKS
DODGE CITY     PTCLDY    77  63  61 SE12      30.11R
ELKHART          N/A     67  61  81 SW10        N/A
GARDEN CITY    MOCLDY    77  63  61 SE8       30.11R
GREAT BEND     PTCLDY    79  64  61 SE7       30.07R
LIBERAL        CLOUDY    77  63  61 SE7       30.14R
$$

KSZ066>073-081>083-090>101-270400-
SOUTHEAST KANSAS

CITY           SKY/WX    TMP DP  RH WIND       PRES   REMARKS
CHANUTE        MOCLDY    86  67  52 E10       30.06R
COFFEYVILLE    PTCLDY    83  70  64 CALM      30.04R
HUTCHINSON     PTCLDY    77  67  71 E8        30.06R
NEWTON         MOCLDY    79  64  61 E5        30.11R
PARSONS        PTCLDY    78  70  76 CALM      30.06R
WICHITA INTL   CLOUDY    80  71  74 E3        30.06R
WICHITA JABRA  CLOUDY    79  68  69 E5        30.07R
WINFIELD       PTCLDY    85  68  56 SE9       30.06R
$$

KSZ007>012-019>026-033>040-048>060-102>105-270400-
NORTHEAST KANSAS

CITY           SKY/WX    TMP DP  RH WIND       PRES   REMARKS
CONCORDIA      CLEAR     73  69  87 SE5       30.07R
EMPORIA        CLOUDY    77  68  73 CALM      30.08R
LAWRENCE       LGT RAIN  81  74  79 N3        30.07R
MANHATTAN      PTCLDY    75  68  78 NE6       30.07R
OLATHE IND     CLOUDY    83  74  74 E5        30.08R
OLATHE EXE     CLOUDY    82  73  74 E8        30.07S
SALINA         PTCLDY    81  67  62 SE7       30.06R
TOPEKA BILLARD CLOUDY    78  71  79 NE5       30.07S
TOPEKA FORBES  CLOUDY    77  71  82 NE3       30.08R
$$



USA.gov is the U.S. government's official web portal to all federal, state and local government web resources and services.